"Time","Temp","Dewpoint","Humidity","Pressure","Direction","Speed","Gust","Precip","PrecipRate"
"00:04:56","60.5","57.9","91","29.74","345","0","0","0.00","0.00"
"00:09:59","60.4","57.8","91","29.74","345","0","0","0.00","0.00"
"00:14:57","60.4","57.8","91.2","29.74","345","0.2","2.4","0.00","0.00"
"00:19:59","60.2","57.6","91","29.74","345","0","1.2","0.00","0.00"
"00:24:56","60","57.4","91","29.74","345","0.5","1.2","0.00","0.00"
"00:29:57","59.9","57.3","91","29.74","345","0","1.2","0.00","0.00"
"00:34:58","59.7","57.3","91.5","29.74","345","0","0","0.00","0.00"
"00:39:57","59.6","57.3","92","29.74","345","0","0","0.00","0.00"
"00:44:59","59.3","57","91.8","29.74","345","0","0","0.00","0.00"
"00:49:57","59.1","56.8","92","29.74","345","0","0","0.00","0.00"
"00:54:58","58.9","56.6","92","29.74","345","0","0","0.00","0.00"
"00:59:59","58.7","56.4","92.1","29.74","345","0","0","0.00","0.00"
"01:04:57","58.5","56.5","93","29.74","345","0.2","1.2","0.00","0.00"
"01:09:57","58.4","56.4","93","29.74","345","0.2","1.2","0.00","0.00"
"01:14:56","58.2","56.2","93","29.74","345","0.1","1.2","0.00","0.00"
"01:19:58","58","56","93","29.74","345","0","0","0.00","0.00"
"01:24:59","57.6","55.6","93","29.74","345","0","0","0.00","0.00"
"01:29:56","57.3","55.3","93","29.74","345","0","0","0.00","0.00"
"01:34:58","57.2","55.4","93.6","29.73","345","0","0","0.00","0.00"
"01:39:57","57.1","55.4","94","29.73","345","0","0","0.00","0.00"
"01:44:59","57.1","55.4","94","29.73","345","0","0","0.00","0.00"
"01:49:56","56.9","55.2","94","29.73","345","0","0","0.00","0.00"
"01:54:58","56.8","55.1","94","29.73","345","0","0","0.00","0.00"
"01:59:59","56.6","54.9","94","29.73","345","0","0","0.00","0.00"
"02:04:57","56.4","54.7","94","29.73","345","0","0","0.00","0.00"
"02:09:56","56.2","54.5","94","29.73","345","0.2","2.4","0.00","0.00"
"02:14:56","56.1","54.4","94","29.73","345","0","0","0.00","0.00"
"02:19:57","56","54.3","94","29.73","345","0","0","0.00","0.00"
"02:24:59","55.9","54.2","94","29.73","345","0","0","0.00","0.00"
"02:29:56","55.8","54.3","94.8","29.73","345","0","0","0.00","0.00"
"02:34:58","55.6","54.2","95","29.73","345","0.5","2.4","0.00","0.00"
"02:39:57","55.5","54.1","95","29.73","345","0.1","1.2","0.00","0.00"
"02:44:59","55.4","54","95","29.73","345","0","0","0.00","0.00"
"02:49:56","55.3","53.9","95","29.73","345","0","0","0.00","0.00"
"02:54:57","55.3","53.9","95","29.73","345","0","1.2","0.00","0.00"
"02:59:59","55.3","53.8","95","29.73","345","0","0","0.00","0.00"
"03:04:57","55.1","53.7","95","29.73","345","1.1","3.6","0.00","0.00"
"03:09:56","55","53.6","95","29.73","345","0.9","2.4","0.00","0.00"
"03:14:59","54.9","53.5","95","29.73","345","0","0","0.00","0.00"
"03:19:57","54.9","53.5","95","29.73","345","0","0","0.00","0.00"
"03:24:58","54.8","53.4","95","29.73","345","0","0","0.00","0.00"
"03:29:59","54.6","53.2","95","29.73","345","0","0","0.00","0.00"
"03:34:57","54.5","53.1","95","29.73","345","0","0","0.00","0.00"
"03:39:56","54.3","52.9","95","29.73","345","0","0","0.00","0.00"
"03:44:58","54.1","52.7","95","29.73","345","0","0","0.00","0.00"
"03:49:59","53.9","52.5","95","29.73","345","0","0","0.00","0.00"
"03:54:56","53.9","52.5","95","29.73","345","0","0","0.00","0.00"
"03:59:57","53.8","52.4","95","29.73","345","0","0","0.00","0.00"
"04:04:59","53.7","52.4","95.2","29.73","345","0","0","0.00","0.00"
"04:09:58","53.6","52.4","95.7","29.73","345","0","0","0.00","0.00"
"04:14:58","53.6","52.5","96","29.73","345","0","0","0.00","0.00"
"04:19:59","53.5","52.4","96","29.73","345","0","0","0.00","0.00"
"04:24:56","53.5","52.4","96","29.73","345","0","0","0.00","0.00"
"04:29:57","53.4","52.3","96","29.73","345","0","0","0.00","0.00"
"04:34:58","53.4","52.3","96","29.73","345","0","0","0.00","0.00"
"04:39:57","53.3","52.2","96","29.73","345","0","0","0.00","0.00"
"04:44:59","53.2","51.9","95.5","29.73","345","0","0","0.00","0.00"
"04:49:56","53.2","52.1","96","29.72","345","0","0","0.00","0.00"
"04:54:58","53.1","52","96","29.72","345","0","0","0.00","0.00"
"04:59:59","53","51.8","95.8","29.73","345","0","0","0.00","0.00"
"05:04:56","52.7","51.3","95","29.73","345","0","0","0.00","0.00"
"05:09:59","52.5","51.1","95","29.73","345","0","0","0.00","0.00"
"05:14:58","52.4","51.3","96","29.73","345","0","3.6","0.00","0.00"
"05:19:59","52.5","51.4","96","29.73","345","0.9","3.6","0.00","0.00"
"05:24:56","52.5","51.4","96","29.73","345","0","0","0.00","0.00"
"05:29:57","52.6","51.5","96","29.74","345","0.9","2.4","0.00","0.00"
"05:34:59","52.4","51.3","96","29.74","345","0","0","0.00","0.00"
"05:39:58","52.4","51.3","96","29.74","345","0.8","3.6","0.00","0.00"
"05:44:56","52.3","51.2","96","29.74","345","0.2","2.3","0.00","0.00"
"05:49:57","52.3","51.2","96","29.73","345","0.5","2.4","0.00","0.00"
"05:54:58","52.2","51.1","96","29.73","345","0","1.2","0.00","0.00"
"05:59:59","52.1","51","96","29.73","345","0.7","2.4","0.00","0.00"
"06:04:56","51.9","50.8","96","29.73","345","0","2.3","0.00","0.00"
"06:09:57","51.9","50.8","96","29.73","345","0","0","0.00","0.00"
"06:14:56","51.7","50.6","96","29.73","345","0","1.2","0.00","0.00"
"06:19:58","51.6","50.5","96","29.73","345","0","0","0.00","0.00"
"06:24:59","51.5","50.4","96","29.73","345","0","0","0.00","0.00"
"06:29:56","51.4","50.3","96","29.74","345","0","0","0.00","0.00"
"06:34:58","51.3","50.2","96","29.74","345","0","0","0.00","0.00"
"06:39:57","51.3","50.2","96","29.74","345","0","0","0.00","0.00"
"06:44:58","51.3","50.2","96","29.74","345","0","0","0.00","0.00"
"06:49:59","51.3","50.2","96","29.74","345","0","0","0.00","0.00"
"06:54:56","51.3","50.2","96","29.74","345","0","0","0.00","0.00"
"06:59:58","51.3","50.2","96","29.75","345","0","0","0.00","0.00"
"07:04:56","51.2","50.1","96","29.75","345","0.7","2.4","0.00","0.00"
"07:09:59","51.1","50","96","29.75","345","1.3","2.4","0.00","0.00"
"07:14:58","51.2","50.1","96.2","29.75","345","0.9","2.4","0.00","0.00"
"07:19:56","51.1","50","96","29.74","345","0.1","1.2","0.00","0.00"
"07:24:57","51.1","50","96","29.74","345","1.1","2.4","0.00","0.00"
"07:29:58","51.2","50.1","96","29.75","345","0.2","1.2","0.00","0.00"
"07:34:59","51.2","50.2","96.3","29.75","346","0","0","0.00","0.00"
"07:39:58","51.3","50.6","97","29.75","346","0.4","2.4","0.00","0.00"
"07:44:59","51.6","50.8","97","29.75","346","1.2","2.4","0.00","0.00"
"07:49:59","52","51.2","97","29.75","346","0.5","3.6","0.00","0.00"
"07:54:56","52.4","51.6","97.1","29.75","346","0.8","3.6","0.00","0.00"
"07:59:57","53.1","52.6","98","29.75","346","0","1.2","0.00","0.00"
"08:04:59","53.7","53","97.5","29.75","346","0","0","0.00","0.00"
"08:09:58","54.5","53.8","97.7","29.75","346","0.2","2.4","0.00","0.00"
"08:14:57","55.3","54.3","96.4","29.75","346","0.5","2.4","0.00","0.00"
"08:19:58","56","54.7","95.4","29.75","346","0","0","0.00","0.00"
"08:24:59","56.9","55.5","94.9","29.75","346","0","0","0.00","0.00"
"08:29:56","58","56.2","93.6","29.75","346","0","0","0.00","0.00"
"08:34:57","58.9","56.8","92.7","29.75","346","0","0","0.00","0.00"
"08:39:56","59.6","57.1","91.1","29.75","346","0","0","0.00","0.00"
"08:44:57","60.4","57.4","89.7","29.75","346","0","0","0.00","0.00"
"08:49:59","61","57.4","88.1","29.74","346","0.4","2.4","0.00","0.00"
"08:54:59","62","57.8","86.1","29.74","346","1.2","3.6","0.00","0.00"
"08:59:56","62.9","58.1","84.5","29.75","249","2.2","6","0.00","0.00"
"09:04:58","63.5","57.7","81.4","29.75","212","3.7","7.2","0.00","0.00"
"09:09:57","64.1","57.5","79.1","29.75","200","3.4","7.2","0.00","0.00"
"09:14:56","64.8","57.7","77.8","29.75","201","3.4","6","0.00","0.00"
"09:19:56","65.5","57.7","75.9","29.75","221","4.2","9.6","0.00","0.00"
"09:24:57","66.4","57.9","74.2","29.75","205","4.1","9.6","0.00","0.00"
"09:29:58","67","57.5","71.4","29.75","219","5.2","13.2","0.00","0.00"
"09:34:58","67.6","57.7","70.3","29.75","194","4.1","12.7","0.00","0.00"
"09:39:56","68.2","58.3","70.8","29.75","185","3.8","10.8","0.00","0.00"
"09:44:57","68.6","57.4","67.5","29.76","210","4.9","12","0.00","0.00"
"09:49:58","68.9","57.2","66.3","29.76","199","5.1","12","0.00","0.00"
"09:54:59","69.4","57.8","66.5","29.76","193","3.5","11.5","0.00","0.00"
"09:59:56","69.8","57.8","65.7","29.76","223","4.1","10.8","0.00","0.00"
"10:04:57","70","57.9","65.4","29.76","221","4.9","10.8","0.00","0.00"
"10:09:56","70.3","58.4","66.1","29.76","203","3.7","7.2","0.00","0.00"
"10:14:58","70.7","57.7","63.4","29.76","184","4.8","16.1","0.00","0.00"
"10:19:56","71.1","56.7","60.6","29.76","213","5.9","13.2","0.00","0.00"
"10:24:56","71.2","56.5","59.9","29.76","198","5.6","15","0.00","0.00"
"10:29:57","71.3","56.9","60.4","29.76","204","5.5","13.2","0.00","0.00"
"10:34:58","71.6","56.9","60","29.76","196","4.6","8.4","0.00","0.00"
"10:39:56","71.8","56.3","58.2","29.76","204","4.8","12","0.00","0.00"
"10:44:57","72","56.6","58.5","29.76","224","3.5","8.4","0.00","0.00"
"10:49:58","72.2","56.2","57.3","29.76","208","5.6","10.8","0.00","0.00"
"10:54:59","72.1","56.1","57.2","29.76","232","4","7.2","0.00","0.00"
"10:59:56","72.4","57.4","59.3","29.76","205","4.1","8.4","0.00","0.00"
"11:04:57","72.8","56.2","56.1","29.76","190","4.1","9.6","0.00","0.00"
"11:09:56","72.8","56.3","56.1","29.76","200","4.5","9.2","0.00","0.00"
"11:14:59","72.9","55.9","55.2","29.77","251","3.8","9.6","0.00","0.00"
"11:19:55","73","56.2","55.7","29.77","219","5.2","14.4","0.00","0.00"
"11:24:57","73","55.7","54.5","29.77","198","4.3","15","0.00","0.00"
"11:29:57","73.1","55.7","54.5","29.77","266","3.9","10.8","0.00","0.00"
"11:34:58","73.2","55.8","54.5","29.76","231","4.6","13.2","0.00","0.00"
"11:39:56","72.9","55.6","54.6","29.76","242","4.3","10.8","0.00","0.00"
"11:44:57","73.4","56.6","55.7","29.76","227","4.7","10.8","0.00","0.00"
"11:49:58","73.7","56.1","54.2","29.76","194","4.6","7.2","0.00","0.00"
"11:54:58","73.9","56.8","55.2","29.76","225","4.6","8.4","0.00","0.00"
"11:59:59","74.3","56.1","53.1","29.76","206","4.6","13.2","0.00","0.00"
"12:04:56","74","56","53.3","29.76","213","4.9","10.8","0.00","0.00"
"12:09:59","73.8","57","55.8","29.76","199","4.4","10.8","0.00","0.00"
"12:14:58","73.5","56.1","54.5","29.76","191","3.3","7.2","0.00","0.00"
"12:19:59","72.8","55.5","54.5","29.76","205","4.1","8.4","0.00","0.00"
"12:24:56","72.6","55.7","55.3","29.76","229","4.5","10.8","0.00","0.00"
"12:29:56","72.9","56.1","55.8","29.76","208","5","9.6","0.00","0.00"
"12:34:57","72.9","55.1","53.6","29.76","254","3.8","12","0.00","0.00"
"12:39:59","73.2","56.5","55.8","29.76","234","4.3","8.4","0.00","0.00"
"12:44:56","73.9","56.4","54.5","29.76","240","5","12","0.00","0.00"
"12:49:57","73.9","55.8","53.3","29.75","226","3.2","7.2","0.00","0.00"
"12:54:58","73.5","56","54.3","29.75","196","4.2","8.4","0.00","0.00"
"12:59:59","73.8","56.3","54.4","29.75","219","4.1","9.6","0.00","0.00"
"13:04:56","74.5","55.9","52.5","29.75","198","5.3","13.2","0.00","0.00"
"13:09:59","74.7","56.2","52.7","29.75","206","5.1","12.7","0.00","0.00"
"13:14:59","74.3","54.8","50.6","29.75","216","4.3","10.8","0.00","0.00"
"13:19:56","74.3","55.7","52.3","29.75","228","4.8","10.4","0.00","0.00"
"13:24:57","74.6","55.4","51.2","29.75","183","3","6","0.00","0.00"
"13:29:58","74.8","54.6","49.5","29.75","200","6.4","15","0.00","0.00"
"13:34:58","74.7","56","52.3","29.74","186","3.5","8.4","0.00","0.00"
"13:39:57","75.1","54.6","49","29.74","206","5","10.8","0.00","0.00"
"13:44:58","75.1","55","49.6","29.74","268","2.8","8.1","0.00","0.00"
"13:49:59","75.1","56.1","51.7","29.74","215","4.5","9.6","0.00","0.00"
"13:54:56","75.4","55.9","50.8","29.74","204","4.9","9.6","0.00","0.00"
"13:59:57","75.8","56.7","51.6","29.74","221","3.5","8.1","0.00","0.00"
"14:04:58","76.2","57.1","51.8","29.73","205","3.9","10.8","0.00","0.00"
"14:09:57","76.2","56.2","49.9","29.73","194","4","8.4","0.00","0.00"
"14:14:56","75.7","55.1","48.8","29.73","230","4","8.4","0.00","0.00"
"14:19:58","75","55.5","50.7","29.73","188","3.1","7.2","0.00","0.00"
"14:24:59","74.5","54.7","50.2","29.73","205","3","6","0.00","0.00"
"14:29:56","74.1","54.4","50.2","29.73","200","2.8","5.8","0.00","0.00"
"14:34:57","73.8","54.3","50.5","29.73","200","2","4.8","0.00","0.00"
"14:39:56","73.8","55.1","51.9","29.73","199","2.3","4.8","0.00","0.00"
"14:44:57","74.1","56","53.2","29.73","198","1.2","4.8","0.00","0.00"
"14:49:58","74.1","54.2","49.8","29.73","339","2.9","6","0.00","0.00"
"14:54:59","73.9","53.9","49.6","29.73","342","1.4","4.8","0.00","0.00"
"14:59:56","73.8","55.3","52.4","29.73","341","1.5","3.6","0.00","0.00"
"15:04:57","73.6","54.8","51.9","29.73","339","1","3.5","0.00","0.00"
"15:09:56","73.3","55.3","53.3","29.73","338","0.5","3.6","0.00","0.00"
"15:14:56","73.1","55.1","53.3","29.74","338","0","0","0.00","0.00"
"15:19:57","72.9","56.2","55.9","29.74","341","2.9","8.4","0.00","0.00"
"15:24:58","72.1","55.6","56.2","29.74","335","3","10.8","0.00","0.00"
"15:29:59","71.1","54.8","56.4","29.74","335","5","16.1","0.00","0.00"
"15:34:59","70.5","55.1","58.1","29.74","337","3.5","8.4","0.00","0.00"
"15:39:58","70.3","55.4","59.2","29.74","344","2.5","8.1","0.00","0.00"
"15:44:59","70.4","55.3","58.9","29.75","318","3.3","9.6","0.00","0.00"
"15:49:56","71.1","56.5","60","29.75","318","2.8","8.4","0.00","0.00"
"15:54:57","72","57","59.1","29.75","314","2.1","5.8","0.00","0.00"
"15:59:57","72.1","56","57","29.75","214","2.6","8.4","0.00","0.00"
"16:04:59","71.8","55.1","55.6","29.74","316","1.8","7.2","0.00","0.00"
"16:09:57","71.6","55.1","56","29.74","342","2.9","7.2","0.00","0.00"
"16:14:56","71.5","55.4","56.9","29.74","342","2","6.9","0.00","0.00"
"16:19:57","71.3","55.5","57.6","29.74","343","1.1","3.6","0.00","0.00"
"16:24:59","71.2","55.5","57.6","29.74","344","0.2","2.4","0.00","0.00"
"16:29:56","71.4","56.2","58.9","29.74","344","0.6","2.4","0.00","0.00"
"16:34:57","72","56.1","57.5","29.74","341","2","6","0.00","0.00"
"16:39:56","72.4","56.2","56.8","29.74","326","2.3","6","0.00","0.00"
"16:44:56","73","56.3","55.8","29.74","297","2.1","7.2","0.00","0.00"
"16:49:57","73.6","56","54.1","29.74","344","3.6","7.2","0.00","0.00"
"16:54:59","74","56.1","53.7","29.74","340","2.3","8.4","0.00","0.00"
"16:59:59","74.3","56.1","53.2","29.75","339","2.7","8.1","0.00","0.00"
"17:04:57","74.6","55.8","51.8","29.75","326","2.6","6","0.00","0.00"
"17:09:59","74.8","56.5","53","29.75","331","2.5","8.4","0.00","0.00"
"17:14:58","74.4","56.7","54.2","29.75","350","2.9","9.6","0.00","0.00"
"17:19:59","73.5","56.5","55.3","29.75","342","3.2","7.2","0.00","0.00"
"17:24:56","72.8","56.3","56.2","29.75","346","1.7","6","0.00","0.00"
"17:29:56","72.2","56","56.8","29.76","304","4.6","12","0.00","0.00"
"17:34:57","71.5","54.8","55.7","29.76","308","4.4","18","0.00","0.00"
"17:39:56","71","53.5","54","29.76","332","5.3","17.3","0.00","0.00"
"17:44:57","70.9","53.4","54","29.76","332","3.8","12","0.00","0.00"
"17:49:58","71","53.2","53.5","29.76","334","5.4","12","0.00","0.00"
"17:54:59","70.9","53.2","53.5","29.76","293","4.5","14.4","0.00","0.00"
"17:59:56","70.7","53","53.6","29.77","318","3.5","7.2","0.00","0.00"
"18:04:57","70.4","52.9","53.8","29.77","324","3.8","12","0.00","0.00"
"18:09:56","70.1","53.2","55","29.77","320","2.4","7.2","0.00","0.00"
"18:14:59","69.9","53.2","55.3","29.78","338","2.5","6.9","0.00","0.00"
"18:19:56","69.6","52.8","55.2","29.78","320","3.3","12","0.00","0.00"
"18:24:56","69.5","52.7","55.3","29.78","325","3.8","8.1","0.00","0.00"
"18:29:57","69.2","52.7","55.7","29.78","309","2.6","7.2","0.00","0.00"
"18:34:59","68.9","52.5","55.8","29.78","20","2.2","6.9","0.00","0.00"
"18:39:58","68.7","52.6","56.6","29.78","358","2.1","7.2","0.00","0.00"
"18:44:56","68.3","52.6","57.2","29.78","322","1.8","4.8","0.00","0.00"
"18:49:57","68","52.9","58.5","29.78","323","1","2.4","0.00","0.00"
"18:54:59","67.7","52.9","59.2","29.78","325","1.3","4.8","0.00","0.00"
"18:59:56","67.4","53","60.1","29.78","326","0.3","2.4","0.00","0.00"
"19:04:59","67","53","60.8","29.78","326","0","1.2","0.00","0.00"
"19:09:58","66.7","52.9","61.3","29.78","326","0","0","0.00","0.00"
"19:14:58","66.2","52.9","62.2","29.79","326","0","0","0.00","0.00"
"19:19:59","65.7","53.2","64.1","29.79","326","0","0","0.00","0.00"
"19:24:57","65.2","53.2","65.1","29.79","326","0","0","0.00","0.00"
"19:29:59","64.6","53.2","66.5","29.80","326","0","0","0.00","0.00"
"19:34:57","63.9","53.3","68.6","29.80","326","0","0","0.00","0.00"
"19:39:56","63.1","53.4","70.4","29.80","326","0","0","0.00","0.00"
"19:44:58","62.4","53","71.3","29.80","326","0.1","1.2","0.00","0.00"
"19:49:56","61.8","53","72.8","29.80","326","0","0","0.00","0.00"
"19:54:58","61.3","53","74.2","29.80","326","0","0","0.00","0.00"
"19:59:56","60.8","52.5","73.8","29.81","323","0.2","2.4","0.00","0.00"
"20:04:58","60.6","52.3","74","29.81","324","0.3","2.4","0.00","0.00"
"20:09:57","60.5","52","73.4","29.81","325","0.1","1.2","0.00","0.00"
"20:14:57","60.5","51.6","72.3","29.82","323","0.6","2.4","0.00","0.00"
"20:19:58","60.8","51.3","70.9","29.82","323","1","2.4","0.00","0.00"
"20:24:56","61.2","51.3","70","29.82","323","0.2","2.4","0.00","0.00"
"20:29:57","61.2","51.2","69.8","29.82","323","0.2","1.2","0.00","0.00"
"20:34:59","61.2","51.1","69.7","29.82","323","0.4","2.4","0.00","0.00"
"20:39:58","61.1","51.3","70.3","29.82","323","0","0","0.00","0.00"
"20:44:56","60.8","51.2","70.5","29.83","323","0","1.2","0.00","0.00"
"20:49:57","60.5","50.7","70.1","29.83","323","0","0","0.00","0.00"
"20:54:59","60.2","51.1","72","29.83","323","0","1.2","0.00","0.00"
"20:59:56","60","51","72.3","29.84","323","0","0","0.00","0.00"
"21:04:58","59.7","51","73","29.84","323","0","1.2","0.00","0.00"
"21:09:58","59.4","50.7","73","29.84","323","0","0","0.00","0.00"
"21:14:57","59.1","50.9","74.3","29.84","323","0","0","0.00","0.00"
"21:19:58","58.8","51.1","75.7","29.84","323","0.4","2.4","0.00","0.00"
"21:24:56","58.7","50.9","75.4","29.84","322","1","3.6","0.00","0.00"
"21:29:57","58.9","50.4","73.4","29.84","323","1.3","3.6","0.00","0.00"
"21:34:59","59.3","50","71.3","29.84","323","1.4","3.6","0.00","0.00"
"21:39:58","59.9","49.8","69.4","29.84","318","1.3","3.6","0.00","0.00"
"21:44:59","60.5","49.8","67.7","29.84","290","2.4","8.4","0.00","0.00"
"21:49:56","60.9","50","67.2","29.84","280","0.8","3.6","0.00","0.00"
"21:54:57","60.9","49.7","66.4","29.84","279","1.2","3.6","0.00","0.00"
"21:59:59","61.1","49.6","65.8","29.85","279","0.9","3.6","0.00","0.00"
"22:04:57","61.2","49.6","65.8","29.85","279","1.3","3.6","0.00","0.00"
"22:09:56","61.3","49.5","65.5","29.85","274","1.2","4.8","0.00","0.00"
"22:14:59","61.4","49.5","65","29.85","267","0.8","4.6","0.00","0.00"
"22:19:56","61.5","49.5","64.8","29.85","267","1.3","3.6","0.00","0.00"
"22:24:57","61.7","49.4","64","29.85","252","1.6","6","0.00","0.00"
"22:29:59","61.7","49.4","63.8","29.85","248","1.6","6","0.00","0.00"
"22:34:56","61.8","49.4","63.8","29.85","243","1.8","5.8","0.00","0.00"
"22:39:59","61.9","49.3","63.3","29.85","282","1.5","4.8","0.00","0.00"
"22:44:57","61.9","49.2","63.2","29.85","262","2.1","7.2","0.00","0.00"
"22:49:58","61.9","49.2","63","29.85","302","2.7","8.4","0.00","0.00"
"22:54:59","62.1","49.1","62.5","29.85","259","2.9","7.2","0.00","0.00"
"22:59:56","62.2","49.1","62.3","29.86","223","2.3","4.6","0.00","0.00"
"23:04:57","62.2","49.1","62.3","29.86","271","2.5","7.2","0.00","0.00"
"23:09:56","62.1","49.3","62.8","29.86","260","1.8","4.8","0.00","0.00"
"23:14:56","62","49.3","63","29.86","257","1.8","4.8","0.00","0.00"
"23:19:57","61.8","49.2","63.2","29.86","267","1.9","6","0.00","0.00"
"23:24:58","61.7","49.1","63.2","29.86","239","1.4","4.6","0.00","0.00"
"23:29:56","61.6","48.9","63","29.86","245","2.3","4.8","0.00","0.00"
"23:34:57","61.5","48.8","62.9","29.86","274","2.5","8.4","0.00","0.00"
"23:39:56","61.6","48.5","62.2","29.86","300","2.6","8.1","0.00","0.00"
"23:44:57","61.7","48.3","61.4","29.87","286","2.3","4.8","0.00","0.00"
